BCS9236 LGAV-LWSK

Flight info

Callsign BCS9236
Flight time 0h 53m
Altitude 38000
Route KRO G33 NEVRA Z507 TSL B5 FSK N128 RUGAS
Aircraft B73F/M-SDE2E3FGHIRWXY/LB1

Departure

Time 2026-05-09 01:07
Airport Athens Eleftherios Venizelos International Airport (LGAV)

Arrival

Time 2026-05-09 02:01
Airport Skopje International Airport (LWSK)
Time Latitude Longitude Altitude Speed Heading
2026-05-09 00:55 37.92350 23.93846 300 ft 0 kts 37°
2026-05-09 01:04 37.92361 23.93854 300 ft 5 kts 31°
2026-05-09 01:04 37.92397 23.93884 301 ft 7 kts 36°
2026-05-09 01:04 37.92416 23.93930 301 ft 0 kts 76°
2026-05-09 01:04 37.92419 23.93946 303 ft 3 kts 76°
2026-05-09 01:05 37.92443 23.93989 301 ft 8 kts 40°
2026-05-09 01:05 37.92481 23.94040 301 ft 8 kts 67°
2026-05-09 01:05 37.92432 23.94161 303 ft 8 kts 127°
2026-05-09 01:06 37.92410 23.94222 303 ft 8 kts 92°
2026-05-09 01:06 37.92412 23.94288 306 ft 7 kts 88°
2026-05-09 01:06 37.92414 23.94352 308 ft 7 kts 82°
2026-05-09 01:06 37.92439 23.94408 308 ft 8 kts 42°
2026-05-09 01:07 37.92511 23.94479 307 ft 35 kts 37°
2026-05-09 01:07 37.92974 23.94916 297 ft 128 kts 37°
2026-05-09 01:07 37.93535 23.95449 362 ft 171 kts 37°
2026-05-09 01:07 37.94484 23.96363 1422 ft 167 kts 37°
2026-05-09 01:08 37.95384 23.97251 2562 ft 165 kts 37°
2026-05-09 01:08 37.96343 23.98174 3288 ft 186 kts 32°
2026-05-09 01:08 37.97488 23.99248 3570 ft 224 kts 32°
2026-05-09 01:08 37.98824 24.00515 3996 ft 251 kts 32°
2026-05-09 01:09 38.00277 24.01911 4614 ft 270 kts 34°
2026-05-09 01:09 38.01789 24.03372 5498 ft 280 kts 34°
2026-05-09 01:09 38.03334 24.04866 6655 ft 281 kts 33°
2026-05-09 01:09 38.04907 24.06388 7670 ft 287 kts 34°
2026-05-09 01:10 38.06514 24.07941 8668 ft 293 kts 34°
2026-05-09 01:10 38.07915 24.09874 9603 ft 305 kts 58°
2026-05-09 01:10 38.08688 24.12387 10598 ft 309 kts 76°
2026-05-09 01:10 38.08880 24.15195 11034 ft 335 kts 99°
2026-05-09 01:11 38.08278 24.18170 11303 ft 361 kts 110°
2026-05-09 01:11 38.07898 24.21447 11496 ft 392 kts 85°
2026-05-09 01:11 38.08687 24.24787 12093 ft 400 kts 58°
2026-05-09 01:11 38.10464 24.27467 12997 ft 396 kts 37°
2026-05-09 01:12 38.12755 24.29365 13838 ft 394 kts 21°
2026-05-09 01:12 38.15293 24.30702 14633 ft 397 kts 17°
2026-05-09 01:12 38.17907 24.31898 15389 ft 401 kts 15°
2026-05-09 01:12 38.20556 24.33069 16169 ft 405 kts 15°
2026-05-09 01:13 38.23197 24.34252 16903 ft 409 kts 15°
2026-05-09 01:13 38.25891 24.35486 17594 ft 413 kts 15°
2026-05-09 01:13 38.28604 24.36754 18262 ft 418 kts 16°
2026-05-09 01:13 38.31351 24.38055 18923 ft 422 kts 16°
2026-05-09 01:14 38.34109 24.39371 19573 ft 426 kts 16°
2026-05-09 01:14 38.36894 24.40706 20211 ft 429 kts 15°
2026-05-09 01:14 38.39698 24.42051 20823 ft 432 kts 15°
2026-05-09 01:14 38.42525 24.43408 21385 ft 436 kts 15°
2026-05-09 01:15 38.45385 24.44781 21939 ft 439 kts 14°
2026-05-09 01:15 38.48255 24.46160 22449 ft 443 kts 14°
2026-05-09 01:15 38.51161 24.47558 22928 ft 447 kts 14°
2026-05-09 01:15 38.54079 24.48962 23421 ft 449 kts 14°
2026-05-09 01:16 38.57011 24.50373 23872 ft 452 kts 14°
2026-05-09 01:16 38.60010 24.51520 24304 ft 448 kts
2026-05-09 01:16 38.63040 24.52076 24740 ft 443 kts 357°
2026-05-09 01:17 38.69148 24.51735 25603 ft 440 kts 349°
2026-05-09 01:17 38.72212 24.51421 26023 ft 442 kts 349°
2026-05-09 01:17 38.75298 24.51118 26410 ft 445 kts 349°
2026-05-09 01:17 38.78398 24.50834 26771 ft 448 kts 350°
2026-05-09 01:18 38.81517 24.50563 27124 ft 450 kts 350°
2026-05-09 01:18 38.84662 24.50300 27490 ft 453 kts 350°
2026-05-09 01:18 38.87773 24.50040 27858 ft 454 kts 350°
2026-05-09 01:18 38.90939 24.49773 28188 ft 456 kts 350°
2026-05-09 01:19 38.94092 24.49340 28546 ft 451 kts 341°
2026-05-09 01:19 38.96987 24.48002 29070 ft 437 kts 328°
2026-05-09 01:19 38.99546 24.45979 29664 ft 427 kts 318°
2026-05-09 01:19 39.01660 24.43365 30164 ft 419 kts 307°
2026-05-09 01:20 39.03509 24.40473 30671 ft 417 kts 306°
2026-05-09 01:20 39.05334 24.37585 31129 ft 416 kts 306°
2026-05-09 01:20 39.07157 24.34712 31634 ft 413 kts 306°
2026-05-09 01:20 39.08975 24.31866 32157 ft 409 kts 307°
2026-05-09 01:21 39.10788 24.29046 32633 ft 407 kts 307°
2026-05-09 01:21 39.12589 24.26252 33058 ft 405 kts 307°
2026-05-09 01:21 39.14391 24.23463 33448 ft 404 kts 307°
2026-05-09 01:21 39.16187 24.20681 33829 ft 403 kts 307°
2026-05-09 01:22 39.17952 24.17947 34047 ft 401 kts 307°
2026-05-09 01:22 39.19756 24.15147 34061 ft 401 kts 307°
2026-05-09 01:22 39.23302 24.09636 34069 ft 402 kts 307°
2026-05-09 01:23 39.26869 24.04085 34066 ft 403 kts 307°
2026-05-09 01:23 39.30697 23.98762 34058 ft 407 kts 315°
2026-05-09 01:24 39.35376 23.94546 34059 ft 412 kts 322°
2026-05-09 01:24 39.40196 23.90510 34059 ft 412 kts 322°
2026-05-09 01:25 39.45007 23.86452 34052 ft 412 kts 321°
2026-05-09 01:25 39.49790 23.82385 34056 ft 411 kts 321°
2026-05-09 01:26 39.54556 23.78317 34054 ft 410 kts 321°
2026-05-09 01:26 39.59291 23.74267 34055 ft 410 kts 321°
2026-05-09 01:27 39.64041 23.70197 34057 ft 410 kts 321°
2026-05-09 01:27 39.68799 23.66114 34055 ft 410 kts 321°
2026-05-09 01:28 39.73552 23.62031 34055 ft 410 kts 321°
2026-05-09 01:28 39.78314 23.57931 34057 ft 410 kts 321°
2026-05-09 01:29 39.83072 23.53827 34055 ft 410 kts 321°
2026-05-09 01:29 39.87810 23.49734 34056 ft 410 kts 321°
2026-05-09 01:30 39.92571 23.45615 34054 ft 410 kts 321°
2026-05-09 01:30 39.97330 23.41491 34057 ft 410 kts 321°
2026-05-09 01:31 40.02091 23.37361 34060 ft 411 kts 321°
2026-05-09 01:31 40.06863 23.33214 34063 ft 412 kts 321°
2026-05-09 01:32 40.11621 23.29074 34067 ft 413 kts 321°
2026-05-09 01:32 40.16414 23.24893 34066 ft 414 kts 321°
2026-05-09 01:33 40.21207 23.20691 34064 ft 415 kts 321°
2026-05-09 01:33 40.26008 23.16473 34055 ft 416 kts 321°
2026-05-09 01:34 40.30822 23.12238 34049 ft 417 kts 321°
2026-05-09 01:34 40.35638 23.07994 34054 ft 417 kts 321°
2026-05-09 01:35 40.40459 23.03737 34042 ft 417 kts 321°
2026-05-09 01:35 40.45667 23.00276 34059 ft 427 kts 337°
2026-05-09 01:36 40.51558 22.98941 34049 ft 440 kts 352°
2026-05-09 01:36 40.57705 22.98964 34045 ft 443 kts 354°
2026-05-09 01:37 40.63873 22.99062 34045 ft 442 kts 354°
2026-05-09 01:37 40.70031 22.99100 34043 ft 442 kts 354°
2026-05-09 01:38 40.76178 22.99102 34046 ft 442 kts 354°
2026-05-09 01:38 40.82325 22.99100 34045 ft 442 kts 354°
2026-05-09 01:39 40.88439 22.99099 34036 ft 442 kts 354°
2026-05-09 01:39 40.94602 22.99099 34050 ft 442 kts 354°
2026-05-09 01:40 41.00766 22.99099 34050 ft 443 kts 354°
2026-05-09 01:40 41.06934 22.98918 34031 ft 439 kts 347°
2026-05-09 01:41 41.12685 22.96628 34047 ft 428 kts 330°
2026-05-09 01:41 41.17698 22.92468 34061 ft 424 kts 322°
2026-05-09 01:42 41.22573 22.88109 33964 ft 427 kts 323°
2026-05-09 01:42 41.25086 22.85903 33182 ft 436 kts 323°
2026-05-09 01:42 41.27617 22.83701 32322 ft 435 kts 323°
2026-05-09 01:43 41.29951 22.81178 31371 ft 432 kts 309°
2026-05-09 01:43 41.31638 22.77905 30430 ft 429 kts 296°
2026-05-09 01:43 41.32739 22.74207 29273 ft 432 kts 284°
2026-05-09 01:43 41.33135 22.70238 28219 ft 434 kts 272°
2026-05-09 01:44 41.33194 22.66231 27333 ft 432 kts 271°
2026-05-09 01:44 41.33200 22.62277 26526 ft 427 kts 270°
2026-05-09 01:44 41.33198 22.58346 25736 ft 423 kts 270°
2026-05-09 01:44 41.33206 22.54453 24951 ft 418 kts 270°
2026-05-09 01:45 41.33225 22.50604 24175 ft 414 kts 270°
2026-05-09 01:45 41.33254 22.46787 23398 ft 410 kts 270°
2026-05-09 01:45 41.33287 22.43012 22630 ft 407 kts 270°
2026-05-09 01:45 41.33322 22.39269 21865 ft 402 kts 270°
2026-05-09 01:46 41.33355 22.35604 21111 ft 399 kts 270°
2026-05-09 01:46 41.33388 22.31935 20351 ft 395 kts 270°
2026-05-09 01:46 41.33420 22.28299 19596 ft 391 kts 270°
2026-05-09 01:46 41.33449 22.24694 18843 ft 387 kts 270°
2026-05-09 01:47 41.33477 22.21124 18094 ft 384 kts 270°
2026-05-09 01:47 41.33504 22.17631 17367 ft 380 kts 270°
2026-05-09 01:47 41.33529 22.14135 16621 ft 376 kts 270°
2026-05-09 01:47 41.33553 22.10673 15889 ft 372 kts 270°
2026-05-09 01:48 41.33576 22.07250 15167 ft 368 kts 270°
2026-05-09 01:48 41.33597 22.03856 14445 ft 365 kts 270°
2026-05-09 01:48 41.33617 22.00495 13740 ft 361 kts 270°
2026-05-09 01:48 41.33636 21.97163 13019 ft 357 kts 270°
2026-05-09 01:49 41.33654 21.93879 12323 ft 353 kts 271°
2026-05-09 01:49 41.33678 21.90710 11833 ft 331 kts 273°
2026-05-09 01:49 41.34165 21.87733 10784 ft 331 kts 292°
2026-05-09 01:49 41.35349 21.85222 10612 ft 307 kts 309°
2026-05-09 01:50 41.36861 21.83306 10467 ft 302 kts 321°
2026-05-09 01:50 41.38640 21.81839 10352 ft 302 kts 335°
2026-05-09 01:50 41.40627 21.80943 10226 ft 297 kts 343°
2026-05-09 01:50 41.42595 21.80288 10086 ft 286 kts 345°
2026-05-09 01:51 41.44515 21.79692 9747 ft 282 kts 345°
2026-05-09 01:51 41.46415 21.79099 9402 ft 280 kts 345°
2026-05-09 01:51 41.48304 21.78499 9036 ft 278 kts 345°
2026-05-09 01:51 41.50183 21.77892 8666 ft 277 kts 345°
2026-05-09 01:52 41.52056 21.77280 8295 ft 276 kts 345°
2026-05-09 01:52 41.53287 21.76875 8051 ft 275 kts 345°
2026-05-09 01:52 41.55143 21.76263 7673 ft 274 kts 345°
2026-05-09 01:52 41.57591 21.75453 7187 ft 272 kts 345°
2026-05-09 01:53 41.58552 21.75136 6992 ft 272 kts 345°
2026-05-09 01:53 41.59892 21.74691 6723 ft 271 kts 345°
2026-05-09 01:53 41.61125 21.74281 6477 ft 271 kts 345°
2026-05-09 01:53 41.63527 21.73462 6127 ft 264 kts 345°
2026-05-09 01:54 41.64714 21.73051 6029 ft 258 kts 345°
2026-05-09 01:54 41.66420 21.72461 5895 ft 249 kts 345°
2026-05-09 01:54 41.68065 21.71891 5783 ft 239 kts 345°
2026-05-09 01:54 41.69619 21.71352 5705 ft 227 kts 345°
2026-05-09 01:55 41.71101 21.70840 5551 ft 215 kts 345°
2026-05-09 01:55 41.72524 21.70348 5314 ft 206 kts 345°
2026-05-09 01:55 41.73886 21.69876 5075 ft 198 kts 345°
2026-05-09 01:55 41.75197 21.69421 4844 ft 191 kts 345°
2026-05-09 01:56 41.76463 21.68983 4617 ft 184 kts 345°
2026-05-09 01:56 41.77685 21.68562 4409 ft 178 kts 346°
2026-05-09 01:56 41.78859 21.68177 4343 ft 174 kts 345°
2026-05-09 01:56 41.80041 21.67776 4086 ft 170 kts 345°
2026-05-09 01:57 41.81147 21.67392 3834 ft 159 kts 345°
2026-05-09 01:57 41.82209 21.67021 3623 ft 157 kts 345°
2026-05-09 01:57 41.83260 21.66653 3402 ft 159 kts 345°
2026-05-09 01:57 41.84335 21.66278 3180 ft 157 kts 345°
2026-05-09 01:58 41.85390 21.65908 2930 ft 158 kts 345°
2026-05-09 01:58 41.86440 21.65541 2705 ft 155 kts 345°
2026-05-09 01:58 41.87482 21.65177 2480 ft 155 kts 346°
2026-05-09 01:58 41.88516 21.64815 2261 ft 154 kts 346°
2026-05-09 01:59 41.89551 21.64453 2013 ft 156 kts 345°
2026-05-09 01:59 41.90601 21.64073 1743 ft 157 kts 346°
2026-05-09 01:59 41.91657 21.63725 1550 ft 152 kts 346°
2026-05-09 01:59 41.92663 21.63358 1357 ft 148 kts 346°
2026-05-09 02:00 41.93650 21.63021 1137 ft 146 kts 346°
2026-05-09 02:00 41.94619 21.62679 927 ft 142 kts 346°
2026-05-09 02:00 41.95476 21.62385 783 ft 134 kts 346°
2026-05-09 02:00 41.96219 21.62123 788 ft 100 kts 345°
2026-05-09 02:01 41.96727 21.61948 790 ft 51 kts 345°
2026-05-09 02:01 41.96992 21.61879 788 ft 25 kts 25°
2026-05-09 02:01 41.96986 21.61975 790 ft 11 kts 129°
2026-05-09 02:01 41.96938 21.62056 791 ft 12 kts 128°
2026-05-09 02:02 41.96885 21.62142 792 ft 12 kts 137°
2026-05-09 02:02 41.96802 21.62186 793 ft 14 kts 166°
2026-05-09 02:02 41.96702 21.62220 792 ft 16 kts 165°
2026-05-09 02:02 41.96594 21.62258 792 ft 17 kts 166°
2026-05-09 02:03 41.96475 21.62299 792 ft 18 kts 165°
2026-05-09 02:03 41.96386 21.62332 791 ft 3 kts 166°
2026-05-09 02:03 41.96359 21.62341 791 ft 5 kts 166°
2026-05-09 02:03 41.96315 21.62356 791 ft 8 kts 166°
2026-05-09 02:04 41.96255 21.62377 791 ft 10 kts 165°
2026-05-09 02:04 41.96180 21.62404 790 ft 12 kts 165°
2026-05-09 02:04 41.96090 21.62437 790 ft 14 kts 164°
2026-05-09 02:04 41.95994 21.62472 790 ft 14 kts 166°
2026-05-09 02:05 41.95899 21.62506 790 ft 14 kts 166°
2026-05-09 02:05 41.95792 21.62543 788 ft 16 kts 165°
2026-05-09 02:05 41.95680 21.62582 785 ft 16 kts 165°
2026-05-09 02:05 41.95577 21.62618 784 ft 15 kts 165°
2026-05-09 02:06 41.95479 21.62653 783 ft 14 kts 165°
2026-05-09 02:06 41.95383 21.62689 782 ft 13 kts 165°
2026-05-09 02:06 41.95312 21.62725 780 ft 9 kts 126°
2026-05-09 02:07 41.95326 21.62835 780 ft 2 kts 75°
2026-05-09 02:07 41.95326 21.62838 780 ft 0 kts 75°